KQ4HDO Weather Reports


time (UTC)temp
F
wind
direction
speed
knots
gust
knots
rain 1hr
in
rain 24hr
in
rain mn
in
humidity
%
barometer
mb
20260906155503 81 7 2.6 7.0 0.00 0.00 0.00 72 1016.7
20260906155003 82 85 3.5 7.8 0.00 0.00 0.00 71 1016.7
20260906154503 81 84 4.3 7.8 0.00 0.00 0.00 72 1016.8
20260906154003 81 69 3.5 8.7 0.00 0.00 0.00 72 1016.7
20260906153503 81 81 5.2 8.7 0.00 0.00 0.00 71 1016.6
20260906153003 81 92 4.3 8.7 0.00 0.00 0.00 72 1016.6
20260906152503 80 86 2.6 7.8 0.00 0.00 0.00 71 1016.5
20260906152218 81 90 5.2 7.8 0.00 0.00 0.00 72 1016.4
20260906151503 81 80 4.3 7.8 0.00 0.00 0.00 72 1016.1
20260906151003 80 74 2.6 8.7 0.00 0.00 0.00 73 1016.1
20260906150503 80 62 3.5 8.7 0.00 0.00 0.00 73 1016.0
20260906150003 80 40 2.6 7.0 0.00 0.00 0.00 74 1016.0
20260906145503 80 60 2.6 7.8 0.00 0.00 0.00 76 1016.0
20260906145003 79 48 1.7 7.8 0.00 0.00 0.00 76 1016.0
20260906144716 79 70 3.5 7.0 0.00 0.00 0.00 75 1016.0
20260906144003 79 90 3.5 7.8 0.00 0.00 0.00 76 1015.9
20260906143716 79 102 3.5 7.8 0.00 0.00 0.00 76 1015.9
20260906143003 79 99 4.3 8.7 0.00 0.00 0.00 76 1015.7
20260906142217 78 84 4.3 7.0 0.00 0.00 0.00 78 1015.6
20260906141503 78 87 3.5 8.7 0.00 0.00 0.00 78 1015.4
20260906141003 78 84 6.1 8.7 0.00 0.00 0.00 77 1015.4
20260906140503 78 102 2.6 6.1 0.00 0.00 0.00 80 1015.4
20260906140003 78 66 1.7 7.0 0.00 0.00 0.00 80 1015.5
20260906135503 77 92 2.6 7.0 0.00 0.00 0.00 81 1015.6
20260906135217 77 95 4.3 7.0 0.00 0.00 0.00 80 1015.6
20260906134503 76 64 2.6 6.1 0.00 0.00 0.00 82 1015.5
20260906134003 76 79 3.5 6.1 0.00 0.00 0.00 82 1015.5
20260906133503 76 3 0.9 7.8 0.00 0.00 0.00 83 1015.5
20260906133003 76 83 3.5 7.8 0.00 0.00 0.00 83 1015.6
20260906132504 76 72 2.6 7.8 0.00 0.00 0.00 84 1015.6
20260906131003 75 76 3.5 7.0 0.00 0.00 0.00 85 1015.5
20260906130503 75 80 2.6 5.2 0.00 0.00 0.00 86 1015.5
20260906130003 75 73 2.6 5.2 0.00 0.00 0.00 86 1015.5
20260906125503 75 69 1.7 6.1 0.00 0.00 0.00 86 1015.5
20260906125003 74 82 2.6 6.1 0.00 0.00 0.00 87 1015.6
20260906124503 74 64 1.7 3.5 0.00 0.00 0.00 87 1015.6
20260906124003 74 41 0.9 3.5 0.00 0.00 0.00 87 1015.5
20260906123503 74 78 2.6 3.5 0.00 0.00 0.00 87 1015.4
20260906123217 74 76 1.7 3.5 0.00 0.00 0.00 88 1015.4
20260906122717 74 62 0.9 3.5 0.00 0.00 0.00 88 1015.3
20260906122003 73 49 0.9 1.7 0.00 0.00 0.00 89 1015.2
20260906120003 73 80 0.9 1.7 0.00 0.00 0.00 89 1014.9
20260906115503 73 30 0.0 1.7 0.00 0.00 0.00 88 1014.8
20260906115003 73 99 0.0 1.7 0.00 0.00 0.00 88 1014.8
20260906114503 73 99 0.0 1.7 0.00 0.00 0.00 87 1014.9
20260906114003 73 360 0.0 1.7 0.00 0.00 0.00 87 1014.8
20260906113503 73 99 0.0 1.7 0.00 0.00 0.00 87 1014.8
20260906113216 73 99 0.0 1.7 0.00 0.00 0.00 87 1014.8
20260906112503 73 99 0.0 1.7 0.00 0.00 0.00 86 1014.6
20260906112003 73 99 0.9 2.6 0.00 0.00 0.00 85 1014.6
20260906111503 73 85 0.9 2.6 0.00 0.00 0.00 85 1014.6
20260906110218 73 79 0.0 0.9 0.00 0.00 0.00 85 1014.7
20260906105503 73 0 0.0 0.0 0.00 0.00 0.00 85 1014.7
20260906105003 73 0 0.0 0.0 0.00 0.00 0.00 85 1014.6
20260906104503 74 360 0.0 0.9 0.00 0.00 0.00 84 1014.6
20260906104218 74 360 0.0 1.7 0.00 0.00 0.00 84 1014.6
20260906103503 74 79 0.0 1.7 0.00 0.00 0.00 83 1014.6
20260906103003 74 79 0.0 1.7 0.00 0.00 0.00 83 1014.6
20260906102503 75 79 0.9 1.7 0.00 0.00 0.00 82 1014.4
20260906102003 75 79 0.9 1.7 0.00 0.00 0.00 82 1014.4
20260906101503 75 79 0.0 2.6 0.00 0.00 0.00 81 1014.3
20260906101003 76 77 0.9 3.5 0.00 0.00 0.00 80 1014.2
20260906100217 76 95 1.7 7.0 0.00 0.00 0.00 80 1014.3
20260906095503 76 90 3.5 6.1 0.00 0.00 0.00 81 1014.3
20260906095003 76 80 3.5 6.1 0.00 0.00 0.00 81 1014.3
20260906094716 76 71 2.6 6.1 0.00 0.00 0.00 81 1014.3
20260906093503 76 78 3.5 6.1 0.00 0.00 0.00 81 1014.0
20260906093217 76 86 2.6 6.1 0.00 0.00 0.00 81 1014.0
20260906092503 77 90 2.6 7.8 0.00 0.00 0.00 82 1014.0
20260906092003 77 96 2.6 8.7 0.00 0.00 0.00 82 1013.9
20260906091503 77 84 4.3 8.7 0.00 0.00 0.00 82 1014.0
20260906091217 77 89 3.5 7.8 0.00 0.00 0.00 83 1014.0
20260906090503 77 78 2.6 7.0 0.00 0.00 0.00 83 1013.9
20260906090003 78 87 2.6 7.0 0.00 0.00 0.00 84 1013.9
20260906083003 78 71 2.6 6.1 0.00 0.00 0.00 86 1013.7
20260906082503 78 72 1.7 3.5 0.00 0.00 0.00 86 1013.7
20260906082003 78 75 1.7 3.5 0.00 0.00 0.00 86 1013.7
20260906081503 78 71 0.9 3.5 0.00 0.00 0.00 86 1013.6
20260906081003 78 77 1.7 3.5 0.00 0.00 0.00 86 1013.4
20260906080503 78 89 1.7 3.5 0.00 0.00 0.00 86 1013.4
20260906080003 79 82 2.6 3.5 0.00 0.00 0.00 85 1013.3
20260906075503 79 80 1.7 6.1 0.00 0.00 0.00 85 1013.4
20260906075003 79 79 2.6 6.1 0.00 0.00 0.00 85 1013.4
20260906073003 80 79 3.5 7.0 0.00 0.00 0.00 84 1013.6
20260906072718 80 83 2.6 7.0 0.00 0.00 0.00 84 1013.7
20260906072003 80 76 2.6 4.3 0.00 0.00 0.00 84 1013.7
20260906071503 80 80 3.5 4.3 0.00 0.00 0.00 84 1013.7
20260906071003 80 75 1.7 3.5 0.00 0.00 0.00 84 1013.7
20260906070503 80 79 2.6 3.5 0.00 0.00 0.00 84 1013.7
20260906070003 80 82 1.7 2.6 0.00 0.00 0.00 84 1013.7
20260906065503 80 77 1.7 3.5 0.00 0.00 0.00 84 1013.7
20260906065003 80 62 1.7 3.5 0.00 0.00 0.00 84 1013.8
20260906064503 79 76 1.7 2.6 0.00 0.00 0.00 84 1013.7
20260906064003 79 42 0.9 1.7 0.00 0.00 0.00 85 1013.6
20260906063503 79 360 0.0 1.7 0.00 0.00 0.00 85 1013.4
20260906063003 78 42 0.0 1.7 0.00 0.00 0.00 85 1013.5
20260906062503 78 18 0.9 1.7 0.00 0.00 0.00 86 1013.5
20260906062003 78 360 0.0 1.7 0.00 0.00 0.00 86 1013.4
20260906061503 78 360 0.0 1.7 0.00 0.00 0.00 84 1013.5
20260906061003 79 18 0.0 1.7 0.00 0.00 0.00 84 1013.5
20260906060503 79 18 0.9 1.7 0.00 0.00 0.00 83 1013.5
20260906060003 79 18 0.0 1.7 0.00 0.00 0.00 84 1013.5
20260906055717 79 18 0.0 1.7 0.00 0.00 0.00 84 1013.5
20260906055003 79 0 0.0 0.0 0.00 0.00 0.00 84 1013.5
20260906054503 79 0 0.0 0.0 0.00 0.00 0.00 84 1013.4
20260906054003 79 0 0.0 0.0 0.00 0.00 0.00 83 1013.4
20260906053503 79 0 0.0 0.0 0.00 0.00 0.00 83 1013.4
20260906053003 79 0 0.0 0.0 0.00 0.00 0.00 84 1013.4
20260906052717 79 0 0.0 0.0 0.00 0.00 0.00 84 1013.4
20260906052218 79 0 0.0 0.0 0.00 0.00 0.00 83 1013.4
20260906051503 80 0 0.0 0.0 0.00 0.00 0.00 82 1013.4
20260906051003 80 360 0.0 0.0 0.00 0.00 0.00 82 1013.5
20260906050503 80 360 0.0 1.7 0.00 0.00 0.00 82 1013.4
20260906050004 80 18 0.0 1.7 0.00 0.00 0.00 82 1013.4
20260906045503 80 0 0.0 0.0 0.00 0.00 0.00 82 1013.3
20260906045003 80 0 0.0 0.0 0.00 0.00 0.00 82 1013.2
20260906044503 80 0 0.0 0.0 0.00 0.00 0.00 81 1013.2
20260906044003 80 0 0.0 0.0 0.00 0.00 0.00 81 1013.2
20260906043717 80 0 0.0 0.0 0.00 0.00 0.00 81 1013.2
20260906043003 81 0 0.0 0.0 0.00 0.00 0.00 79 1013.2
20260906042716 81 0 0.0 0.0 0.00 0.00 0.00 79 1013.1
20260906041503 81 0 0.0 0.0 0.00 0.00 0.00 80 1013.0
20260906041003 81 0 0.0 0.0 0.00 0.00 0.00 80 1013.0
20260906040503 81 0 0.0 0.0 0.00 0.00 0.00 79 1012.9
20260906040217 81 0 0.0 0.0 0.00 0.00 0.00 78 1012.8
20260906035716 81 0 0.0 0.0 0.00 0.00 0.00 78 1012.8
20260906035003 82 0 0.0 0.0 0.00 0.00 0.00 77 1012.9
20260906034503 82 0 0.0 0.0 0.00 0.00 0.00 76 1012.9
20260906034003 82 0 0.0 0.0 0.00 0.00 0.00 75 1012.8
20260906033503 83 0 0.0 0.0 0.00 0.00 0.00 74 1012.9
20260906031503 83 0 0.0 0.0 0.00 0.00 0.00 73 1012.7
20260906031217 83 0 0.0 0.0 0.00 0.00 0.00 73 1012.6
20260906030503 83 360 0.0 0.0 0.00 0.00 0.00 72 1012.4
20260906030003 84 360 0.0 1.7 0.00 0.00 0.00 72 1012.3
20260906025503 84 18 0.0 1.7 0.00 0.00 0.00 71 1012.3
20260906025003 84 18 0.0 1.7 0.00 0.00 0.00 71 1012.3
20260906024503 84 360 0.0 1.7 0.00 0.00 0.00 70 1012.4
20260906024003 84 18 0.0 1.7 0.00 0.00 0.00 70 1012.3
20260906023503 84 18 0.0 1.7 0.00 0.00 0.00 70 1012.2
20260906023003 84 18 0.9 1.7 0.00 0.00 0.00 70 1012.2
20260906022503 84 18 0.0 1.7 0.00 0.00 0.00 70 1012.0
20260906020503 83 22 0.0 1.7 0.00 0.00 0.00 71 1011.7
20260906015003 83 297 0.0 1.7 0.00 0.00 0.00 71 1011.4
20260906014503 83 0 0.0 0.0 0.00 0.00 0.00 71 1011.4
20260906014003 83 0 0.0 0.0 0.00 0.00 0.00 71 1011.5
20260906013503 83 0 0.0 0.0 0.00 0.00 0.00 70 1011.4
20260906013003 83 0 0.0 0.0 0.00 0.00 0.00 70 1011.3
20260906012503 84 0 0.0 0.0 0.00 0.00 0.00 69 1011.3
20260906012003 84 0 0.0 0.0 0.00 0.00 0.00 69 1011.2
20260906011503 84 0 0.0 0.0 0.00 0.00 0.00 68 1011.1
20260906011003 85 0 0.0 0.0 0.00 0.00 0.00 67 1011.1
20260906010717 85 360 0.0 0.9 0.00 0.00 0.00 65 1011.1
20260906010003 86 297 0.0 1.7 0.00 0.00 0.00 64 1011.2
20260906005503 86 360 0.0 1.7 0.00 0.00 0.00 64 1011.1
20260906005003 86 328 0.0 1.7 0.00 0.00 0.00 63 1011.1
20260906004503 86 360 0.0 1.7 0.00 0.00 0.00 63 1011.1
20260906004003 87 297 0.9 1.7 0.00 0.00 0.00 62 1011.0
20260906003717 87 297 0.9 1.7 0.00 0.00 0.00 61 1011.0
20260906003003 88 297 0.0 1.7 0.00 0.00 0.00 61 1011.0
20260906002503 88 297 0.9 1.7 0.00 0.00 0.00 61 1010.9
20260906002003 88 297 0.9 1.7 0.00 0.00 0.00 60 1011.0
20260906001503 88 360 0.0 1.7 0.00 0.00 0.00 60 1011.0
20260906001003 88 297 0.9 1.7 0.00 0.00 0.00 60 1011.0
20260906000503 88 300 0.9 1.7 0.00 0.00 0.00 59 1011.0
20260906000003 89 344 0.9 1.7 0.00 0.00 0.00 59 1011.1
20260905235503 89 36 0.9 2.6 0.00 0.00 0.00 59 1011.1
20260905235003 89 333 0.9 3.5 0.00 0.00 0.00 57 1011.1
20260905234503 89 58 1.7 6.1 0.00 0.00 0.00 58 1011.2
20260905234218 90 71 1.7 6.1 0.00 0.00 0.00 58 1011.2
20260905233503 90 78 0.9 1.7 0.00 0.00 0.00 58 1011.1
20260905233003 89 82 0.9 1.7 0.00 0.00 0.00 58 1011.1
20260905232503 89 82 0.9 1.7 0.00 0.00 0.00 59 1011.1
20260905232218 89 82 0.9 1.7 0.00 0.00 0.00 59 1011.1
20260905231503 89 82 0.9 2.6 0.00 0.00 0.00 57 1011.1
20260905231003 90 96 0.0 2.6 0.00 0.00 0.00 57 1011.1
20260905230503 90 68 1.7 2.6 0.00 0.00 0.00 56 1011.2
20260905230003 90 317 0.0 1.7 0.00 0.00 0.00 56 1011.2
20260905225716 90 317 0.0 1.7 0.00 0.00 0.00 55 1011.2
20260905225003 90 306 0.0 2.6 0.00 0.00 0.00 54 1011.2
20260905224503 90 280 0.9 3.5 0.00 0.00 0.00 55 1011.3
20260905224003 90 306 1.7 3.5 0.00 0.00 0.00 55 1011.2
20260905223503 90 326 1.7 3.5 0.00 0.00 0.00 56 1011.1
20260905223217 90 285 1.7 2.6 0.00 0.00 0.00 57 1011.1
20260905222503 89 309 0.9 6.1 0.00 0.00 0.00 56 1010.8
20260905222003 89 297 1.7 7.0 0.00 0.00 0.00 56 1010.9
20260905221503 89 276 2.6 7.0 0.00 0.00 0.00 56 1011.1
20260905221217 89 285 1.7 7.8 0.00 0.00 0.00 56 1011.0
20260905220716 90 266 1.7 7.8 0.00 0.00 0.00 55 1011.0
20260905220003 91 288 2.6 9.6 0.00 0.00 0.00 52 1011.3
20260905215503 92 279 3.5 10.4 0.00 0.00 0.00 51 1011.4
20260905215217 92 283 1.7 11.3 0.00 0.00 0.00 50 1011.4
20260905214718 94 322 5.2 11.3 0.00 0.00 0.00 48 1011.3
20260905214003 95 24 0.9 2.6 0.00 0.00 0.00 44 1011.2
20260905213718 95 71 0.9 2.6 0.00 0.00 0.00 44 1011.2
20260905213003 95 6 1.7 5.2 0.00 0.00 0.00 44 1011.1
20260905212503 95 322 2.6 5.2 0.00 0.00 0.00 45 1011.1
20260905212003 96 338 1.7 6.1 0.00 0.00 0.00 46 1011.1
20260905211503 96 334 2.6 6.1 0.00 0.00 0.00 45 1010.9
20260905211217 96 74 2.6 7.8 0.00 0.00 0.00 46 1010.9
20260905210503 95 46 3.5 12.2 0.00 0.00 0.00 45 1010.9
20260905210217 95 340 3.5 12.2 0.00 0.00 0.00 44 1011.0
20260905205503 97 348 3.5 13.9 0.00 0.00 0.00 46 1011.1
20260905205003 98 328 7.0 13.9 0.00 0.00 0.00 44 1011.2
20260905204718 99 337 5.2 13.9 0.00 0.00 0.00 43 1011.3
20260905204003 98 313 2.6 7.0 0.00 0.00 0.00 42 1011.2
20260905203718 98 332 1.7 7.8 0.00 0.00 0.00 42 1011.3
20260905203003 98 321 4.3 7.8 0.00 0.00 0.00 43 1011.3
20260905202503 99 348 2.6 8.7 0.00 0.00 0.00 42 1011.2
20260905202003 99 330 5.2 8.7 0.00 0.00 0.00 42 1011.2
20260905201503 99 326 2.6 6.1 0.00 0.00 0.00 43 1011.3
20260905201003 98 329 1.7 10.4 0.00 0.00 0.00 42 1011.3
20260905200503 99 30 2.6 10.4 0.00 0.00 0.00 40 1011.4
20260905200004 100 345 4.3 8.7 0.00 0.00 0.00 40 1011.5
20260905195503 101 82 4.3 7.8 0.00 0.00 0.00 41 1011.4
20260905195216 101 83 4.3 7.8 0.00 0.00 0.00 40 1011.4
20260905194503 99 74 1.7 9.6 0.00 0.00 0.00 42 1011.5
20260905194003 100 54 3.5 9.6 0.00 0.00 0.00 39 1011.6
20260905193503 101 342 2.6 7.8 0.00 0.00 0.00 42 1011.6
20260905193003 100 351 2.6 9.6 0.00 0.00 0.00 41 1011.7
20260905192503 101 81 6.1 9.6 0.00 0.00 0.00 40 1011.7
20260905192003 101 51 4.3 8.7 0.00 0.00 0.00 42 1011.7
20260905191503 101 46 3.5 8.7 0.00 0.00 0.00 41 1011.8
20260905191003 100 17 2.6 9.6 0.00 0.00 0.00 39 1011.8
20260905190503 100 305 5.2 12.2 0.00 0.00 0.00 38 1012.0
20260905190003 101 318 5.2 12.2 0.00 0.00 0.00 38 1012.1
20260905185503 100 321 3.5 9.6 0.00 0.00 0.00 39 1012.0
20260905185003 100 305 4.3 7.0 0.00 0.00 0.00 39 1012.0
20260905184717 100 272 2.6 10.4 0.00 0.00 0.00 39 1012.0
20260905184003 100 288 5.2 10.4 0.00 0.00 0.00 38 1012.2
20260905183717 100 292 2.6 10.4 0.00 0.00 0.00 39 1012.1
20260905183218 100 332 4.3 10.4 0.00 0.00 0.00 38 1012.1
20260905182503 100 300 3.5 7.0 0.00 0.00 0.00 40 1012.4
20260905182218 100 312 3.5 6.1 0.00 0.00 0.00 39 1012.4
20260905181503 99 339 2.6 7.8 0.00 0.00 0.00 40 1012.3
20260905181003 99 315 2.6 7.0 0.00 0.00 0.00 42 1012.3
20260905180717 98 312 0.9 7.0 0.00 0.00 0.00 42 1012.4
20260905180003 99 336 1.7 6.1 0.00 0.00 0.00 42 1012.6
20260905175503 99 286 2.6 6.1 0.00 0.00 0.00 41 1012.6
20260905175003 100 9 2.6 5.2 0.00 0.00 0.00 40 1012.6
20260905174503 99 329 2.6 6.1 0.00 0.00 0.00 40 1012.7
20260905174003 99 316 2.6 6.1 0.00 0.00 0.00 44 1012.8
20260905173503 99 288 2.6 5.2 0.00 0.00 0.00 43 1012.8
20260905173003 98 256 1.7 4.3 0.00 0.00 0.00 44 1012.9
20260905172503 98 231 1.7 4.3 0.00 0.00 0.00 44 1012.8
20260905172003 98 269 0.9 2.6 0.00 0.00 0.00 46 1012.8
20260905171716 98 269 0.9 4.3 0.00 0.00 0.00 44 1012.8
20260905171003 98 311 2.6 4.3 0.00 0.00 0.00 46 1013.0
20260905170503 98 136 1.7 3.5 0.00 0.00 0.00 46 1012.9
20260905170003 97 211 1.7 5.2 0.00 0.00 0.00 47 1013.2
20260905165503 97 287 2.6 5.2 0.00 0.00 0.00 46 1013.3
20260905165003 96 62 0.9 5.2 0.00 0.00 0.00 46 1013.4
20260905164718 96 332 1.7 5.2 0.00 0.00 0.00 47 1013.5
20260905164003 96 289 0.9 5.2 0.00 0.00 0.00 48 1013.6
20260905163503 96 318 3.5 5.2 0.00 0.00 0.00 46 1013.6
20260905163003 95 15 0.9 3.5 0.00 0.00 0.00 50 1013.6
20260905162503 96 341 0.9 3.5 0.00 0.00 0.00 50 1013.6
20260905162003 96 301 1.7 3.5 0.00 0.00 0.00 50 1013.6
20260905161003 94 298 1.7 5.2 0.00 0.00 0.00 51 1013.7
20260905160503 94 40 2.6 5.2 0.00 0.00 0.00 52 1013.7
20260905160003 94 315 2.6 4.3 0.00 0.00 0.00 52 1013.7